STARLINK-11159, 60905

Orbit data source: Space-Track

STARLINK-11159, 60905 is a payload satellite owned by SpaceX/Seattle (US) in LEO that was launched on Sat, 31 Aug 2024 UTC via an FALCON 9 launch vehicle from the Air Force Eastern Test Range (AFETR). Payload-class satellites include a variety of spacecraft equipped with specific instruments for various scientific and technological missions. These include communications satellites like Starlink; space stations such as the ISS; scientific satellites like the Hubble; Earth observation satellites from companies like Planet Labs, Umbra, and HawkEye 360; GPS; miniature CubeSats for education and research; and military/defense satellites.

Loading next visibility...
Identifier
60905, 2024-154C
Orbit
LEO
Country
Flag of USUS
Related business
Manufacturer
SpaceX/Seattle
Mission
Operational Commercial Communications
Bus & Motor
STARLINK V2MD, Unknown motor
Mass
960 kg wet, ~910 kg dry
Launch date (UTC)
2024-08-31 (2 years ago)
Launch vehicle
FALCON 9
Launch site
Air Force Eastern Test Range (AFETR)
Object type
Payload
Rocket body
Debris
Shape & HBR
Box + 2 Pan, 18.1 m
Radar Cross Section
36.964 m², Large (>1 m²)

Expand to show TLE details & history
Last TLE update: 2 days ago

TLE from 2 days ago
0 STARLINK-11159
1 60905U 24154C   26174.72114767  .00001361  00000-0  16090-4 0  9992
2 60905  53.1584 328.8764 0001100  84.9662 275.1482 15.69710243105163
Epoch: 2026-06-23T17:18Z
TLE epoch observation values (Epoch: 2026-06-23T17:18:27.158Z)
Latitude
0.00001°
Longitude
157.3746°
Altitude
360.575 km
Speed
7.694 km/s
True Right ascension
21h 55m 30s
True Declination
0° 00' 00"
Sunlit
Object was in full shadow at epoch
Visualization orbit readout
Latitude
Unknown
Longitude
Unknown
Altitude
Unknown
Speed
Unknown
Apparent Right ascension
Unknown
Apparent Declination
Unknown
Sunlit
N/A
Visualization observer readout
Local Sidereal Time
17:01:11
Azimuth
Unknown
Elevation
Unknown
Doppler factor
Unknown
Orbital elements
Apogee altitude
360.728 km
Perigee altitude
359.246 km
Semi-major axis
6,738.124 km
Eccentricity
0.00011
Inclination
53.1584°
RAAN
328.8764°
Arg. of periapsis
84.9662°
True anomaly
275.13565°
Mean anomaly
275.1482°
Eccentric anomaly
275.14192°
Mean motion
3.92405 °/min
Orbital period
91.74 mins
BSTAR
0.00001609
Loading maneuver chart data...
Computing Atmospheric mass density...
Loading historical data...
Loading historical data...
Loading historical data...
Loading historical data...
Loading historical data...
Loading historical data...
Loading historical data...

Documentation

Showing up to 5 results
|